Location: Ash Shall?l al Awwal
(24.0167°N, 32.8667°E)
Time: 03:28:43
(UTC+00:00)

Okean-O - Pass Details

Date: 02 March 2021
Orbit: 639 x 640 km, 98.2° (Epoch: 12 April)

Event Time Altitude Azimuth Distance (km) Brightness Sun altitude
Rises 16:15:00 0° 147° (SSE) 2,930 5.7 -6.1°
Reaches altitude 10° 16:17:22 10° 137° (SE) 2,024 4.8 -6.6°
Maximum altitude 16:21:18 32° 74° (ENE) 1,092 3.3 -7.5°
Drops below altitude 10° 16:25:14 10° 11° (N) 2,031 5.1 -8.4°
Sets 16:27:36 0° 2° (N) 2,943 6.0 -9.0°
